TimePDT,TemperatureF,Dew PointF,Humidity,Sea Level PressureIn,VisibilityMPH,Wind Direction,Wind SpeedMPH,Gust SpeedMPH,PrecipitationIn,Events,Conditions,WindDirDegrees,DateUTC
12:53 AM,42.1,32.0,67,30.08,10.0,North,5.8,-,N/A,,Clear,360,2013-04-30 07:53:00
1:53 AM,39.9,32.0,73,30.09,10.0,North,8.1,-,N/A,,Clear,360,2013-04-30 08:53:00
2:53 AM,41.0,32.0,70,30.09,10.0,NE,13.8,-,N/A,,Clear,40,2013-04-30 09:53:00
3:53 AM,39.0,30.9,73,30.11,10.0,NNE,10.4,-,N/A,,Clear,30,2013-04-30 10:53:00
4:53 AM,36.0,30.0,79,30.12,10.0,North,9.2,-,N/A,,Clear,10,2013-04-30 11:53:00
5:53 AM,39.9,30.0,68,30.13,10.0,North,17.3,20.7,N/A,,Clear,360,2013-04-30 12:53:00
6:53 AM,39.0,30.0,70,30.16,10.0,NNW,10.4,-,N/A,,Clear,340,2013-04-30 13:53:00
7:53 AM,43.0,28.9,58,30.18,10.0,North,12.7,-,N/A,,Clear,360,2013-04-30 14:53:00
8:53 AM,46.0,27.0,47,30.17,10.0,NNW,17.3,-,N/A,,Clear,340,2013-04-30 15:53:00
9:53 AM,48.9,25.0,39,30.18,10.0,Variable,4.6,-,N/A,,Clear,0,2013-04-30 16:53:00
10:53 AM,54.0,21.9,29,30.17,10.0,NNE,9.2,-,N/A,,Clear,20,2013-04-30 17:53:00
11:53 AM,55.9,18.0,23,30.16,10.0,NW,8.1,-,N/A,,Clear,310,2013-04-30 18:53:00
12:53 PM,61.0,19.0,20,30.15,10.0,NNE,9.2,-,N/A,,Clear,30,2013-04-30 19:53:00
1:53 PM,64.0,17.1,16,30.16,10.0,NW,17.3,27.6,N/A,,Clear,310,2013-04-30 20:53:00
2:53 PM,63.0,21.0,20,30.17,10.0,North,12.7,24.2,N/A,,Clear,350,2013-04-30 21:53:00
3:53 PM,62.1,18.0,18,30.17,10.0,North,16.1,24.2,N/A,,Clear,360,2013-04-30 22:53:00
4:53 PM,62.1,19.9,20,30.18,10.0,North,16.1,27.6,N/A,,Clear,360,2013-04-30 23:53:00
5:53 PM,61.0,21.0,21,30.19,10.0,North,18.4,23.0,N/A,,Clear,350,2013-05-01 00:53:00
6:53 PM,57.9,23.0,26,30.21,10.0,North,19.6,-,N/A,,Clear,360,2013-05-01 01:53:00
7:53 PM,52.0,23.0,32,30.22,10.0,North,17.3,-,N/A,,Clear,360,2013-05-01 02:53:00
8:53 PM,50.0,23.0,35,30.24,10.0,North,16.1,-,N/A,,Clear,350,2013-05-01 03:53:00
9:53 PM,46.9,24.1,41,30.27,10.0,North,11.5,-,N/A,,Clear,350,2013-05-01 04:53:00
10:53 PM,42.1,25.0,51,30.29,10.0,NE,10.4,-,N/A,,Clear,40,2013-05-01 05:53:00